GW2349 Weather Reports


Display with metric or nautical units.
time (UTC)temp
F
wind
direction
speed
MPH
gust
MPH
rain 1hr
in
rain 24hr
in
rain mn
in
humidity
%
barometer
mb
20260902065542 47 0 0.0 0.0 0.00 0.07 0.00 93 1004.4
20260902065045 46 0 0.0 0.0 0.00 0.07 0.00 94 1004.4
20260902064558 46 0 0.0 0.0 0.00 0.07 0.00 93 1004.5
20260902064042 46 0 0.0 0.0 0.00 0.07 0.00 93 1004.5
20260902063542 45 0 0.0 0.0 0.00 0.07 0.00 93 1004.6
20260902063122 45 0 0.0 0.0 0.00 0.07 0.00 93 1004.6
20260902062542 45 0 0.0 0.0 0.00 0.07 0.00 93 1004.6
20260902062042 44 0 0.0 0.0 0.00 0.07 0.00 93 1004.6
20260902061557 44 0 0.0 0.0 0.00 0.07 0.00 93 1004.6
20260902061042 44 0 0.0 0.0 0.00 0.07 0.00 93 1004.7
20260902060542 43 0 0.0 0.0 0.00 0.07 0.00 93 1004.7
20260902060126 43 0 0.0 0.0 0.00 0.07 0.00 92 1004.8
20260902055542 43 0 0.0 0.0 0.00 0.11 0.00 92 1004.7
20260902055043 43 0 0.0 0.0 0.00 0.11 0.00 92 1004.8
20260902054554 42 0 0.0 0.0 0.00 0.11 0.00 92 1004.8
20260902054047 42 0 0.0 0.0 0.00 0.11 0.00 91 1004.8
20260902053542 42 0 0.0 0.0 0.00 0.11 0.00 91 1004.8
20260902053051 42 0 0.0 0.0 0.00 0.11 0.00 91 1004.8
20260902052542 41 0 0.0 0.0 0.00 0.11 0.00 90 1004.9
20260902052042 41 0 0.0 0.0 0.00 0.11 0.00 90 1004.9
20260902051607 41 0 0.0 0.0 0.00 0.11 0.00 90 1005.0
20260902051042 41 0 0.0 0.0 0.00 0.11 0.00 90 1005.0
20260902050543 41 0 0.0 0.0 0.00 0.11 0.00 90 1004.9
20260902050055 41 0 0.0 0.0 0.00 0.11 0.00 89 1005.0
20260902045546 41 0 0.0 0.0 0.00 0.14 0.00 89 1005.1
20260902045042 41 0 0.0 0.0 0.00 0.14 0.00 89 1005.0
20260902044602 41 0 0.0 0.0 0.00 0.14 0.00 89 1005.1
20260902044044 41 0 0.0 0.0 0.00 0.14 0.00 89 1005.1
20260902043542 41 0 0.0 0.0 0.00 0.14 0.00 88 1005.1
20260902043111 41 0 0.0 0.0 0.00 0.14 0.00 88 1005.2
20260902042542 41 0 0.0 0.0 0.00 0.14 0.00 88 1005.2
20260902042043 41 0 0.0 0.0 0.00 0.14 0.00 89 1005.2
20260902041557 41 0 0.0 0.0 0.00 0.14 0.00 89 1005.2
20260902041042 41 0 0.0 0.0 0.00 0.14 0.00 89 1005.2
20260902040542 41 0 0.0 0.0 0.00 0.14 0.00 88 1005.2
20260902040056 41 0 0.0 0.0 0.00 0.14 0.00 88 1005.2
20260902035541 41 0 0.0 0.0 0.00 0.16 0.00 88 1005.2
20260902035042 41 0 0.0 0.0 0.00 0.16 0.00 88 1005.3
20260902034601 41 0 0.0 0.0 0.00 0.16 0.00 88 1005.4
20260902034043 41 0 0.0 0.0 0.00 0.16 0.00 88 1005.4
20260902033543 41 0 0.0 0.0 0.00 0.16 0.00 88 1005.4
20260902033112 41 0 0.0 0.0 0.00 0.16 0.00 88 1005.5
20260902032542 41 0 0.0 0.0 0.00 0.16 0.00 88 1005.5
20260902032042 41 0 0.0 0.0 0.00 0.16 0.00 88 1005.5
20260902031558 42 0 0.0 0.0 0.00 0.16 0.00 88 1005.5
20260902031042 42 0 0.0 0.0 0.00 0.16 0.00 88 1005.6
20260902030543 42 0 0.0 0.0 0.00 0.16 0.00 88 1005.6
20260902025543 42 0 0.0 0.0 0.00 0.21 0.00 88 1005.7
20260902025043 42 0 0.0 0.0 0.00 0.21 0.00 89 1005.7
20260902024620 42 0 0.0 0.0 0.00 0.21 0.00 89 1005.7
20260902024042 42 0 0.0 0.0 0.00 0.21 0.00 89 1005.8
20260902023542 42 0 0.0 0.0 0.00 0.21 0.00 88 1005.9
20260902023101 42 0 0.0 0.0 0.00 0.21 0.00 88 1005.8
20260902022545 43 0 0.0 0.0 0.00 0.21 0.00 88 1005.9
20260902022041 43 0 0.0 0.0 0.00 0.21 0.00 89 1005.9
20260902021555 43 0 0.0 0.0 0.00 0.21 0.00 89 1006.0
20260902021042 43 0 0.0 0.0 0.00 0.21 0.00 89 1005.9
20260902020542 43 0 0.0 0.0 0.00 0.21 0.00 89 1006.0
20260902020116 43 0 0.0 0.0 0.00 0.21 0.00 89 1006.0
20260902015542 43 0 0.0 0.0 0.00 0.22 0.00 88 1006.0
20260902015042 43 0 0.0 0.0 0.00 0.22 0.00 88 1006.2
20260902014558 43 0 0.0 0.0 0.00 0.22 0.00 88 1006.2
20260902014042 43 0 0.0 0.0 0.00 0.22 0.00 88 1006.2
20260902013545 43 0 0.0 0.0 0.00 0.22 0.00 88 1006.2
20260902013106 43 0 0.0 0.0 0.00 0.22 0.00 88 1006.3
20260902012541 43 0 0.0 0.0 0.00 0.22 0.00 88 1006.2
20260902012042 43 0 0.0 0.0 0.00 0.22 0.00 88 1006.4
20260902011555 43 0 0.0 0.0 0.00 0.22 0.00 88 1006.2
20260902011044 43 0 0.0 0.0 0.00 0.22 0.00 88 1006.4
20260902010541 43 0 0.0 0.0 0.00 0.22 0.00 88 1006.4
20260902010052 44 0 0.0 0.0 0.00 0.22 0.00 88 1006.5
20260902005545 44 0 0.0 0.0 0.00 0.23 0.00 88 1006.4
20260902005042 44 0 0.0 0.0 0.00 0.23 0.00 88 1006.4
20260902004603 44 0 0.0 0.0 0.00 0.23 0.00 88 1006.3
20260902004134 44 0 0.0 0.0 0.00 0.23 0.00 88 1006.5
20260902003542 44 0 0.0 0.0 0.00 0.23 0.00 88 1006.5
20260902003104 44 0 0.0 0.0 0.00 0.23 0.00 88 1006.6
20260902002542 44 0 0.0 0.0 0.00 0.23 0.00 88 1006.6
20260902002041 44 0 0.0 0.0 0.00 0.23 0.00 88 1006.6
20260902001556 45 0 0.0 0.0 0.00 0.23 0.00 88 1006.6
20260902001044 45 0 0.0 0.0 0.00 0.23 0.00 88 1006.6
20260902000542 45 0 0.0 0.0 0.00 0.23 0.00 88 1006.6
20260902000055 45 0 0.0 0.0 0.00 0.23 0.00 87 1006.6
20260901235542 45 0 0.0 0.0 0.00 0.23 0.00 88 1006.6
20260901235042 45 0 0.0 0.0 0.00 0.23 0.00 88 1006.6
20260901234611 45 0 0.0 0.0 0.00 0.23 0.00 88 1006.7
20260901234044 45 0 0.0 0.0 0.00 0.23 0.00 88 1006.6
20260901233542 45 0 0.0 0.0 0.00 0.23 0.00 88 1006.6
20260901233103 46 0 0.0 0.0 0.00 0.23 0.00 88 1006.7
20260901232542 46 0 0.0 0.0 0.00 0.23 0.00 88 1006.7
20260901232042 46 0 0.0 0.0 0.00 0.23 0.00 88 1006.8
20260901231558 46 0 0.0 0.0 0.00 0.23 0.00 88 1006.8
20260901231041 46 0 0.0 0.0 0.00 0.23 0.00 88 1006.8
20260901230542 46 0 0.0 0.0 0.00 0.23 0.00 89 1006.8
20260901230105 46 0 0.0 0.0 0.00 0.23 0.00 88 1006.8
20260901225543 46 0 0.0 0.0 0.00 0.23 0.00 88 1006.8
20260901225042 46 0 0.0 0.0 0.00 0.23 0.00 88 1006.8
20260901224603 47 0 0.0 0.0 0.00 0.23 0.00 88 1006.9
20260901224042 47 0 0.0 0.0 0.00 0.23 0.00 88 1007.0
20260901223542 47 0 0.0 0.0 0.00 0.23 0.00 88 1007.0
20260901223116 47 0 0.0 0.0 0.00 0.23 0.00 88 1007.1
20260901222542 47 0 0.0 0.0 0.00 0.23 0.00 88 1007.1
20260901222042 47 0 0.0 0.0 0.00 0.23 0.00 88 1007.1
20260901221632 48 0 0.0 0.0 0.00 0.23 0.00 88 1007.1
20260901221042 48 0 0.0 0.0 0.00 0.23 0.00 88 1007.0
20260901220542 48 0 0.0 0.0 0.00 0.23 0.00 88 1007.0
20260901220108 48 0 0.0 0.0 0.00 0.23 0.00 88 1007.1
20260901215542 48 0 0.0 0.0 0.00 0.23 0.23 87 1007.1
20260901215043 48 0 0.0 0.0 0.00 0.23 0.23 87 1007.2
20260901214600 48 0 0.0 0.0 0.00 0.23 0.23 87 1007.2
20260901214042 49 0 0.0 0.0 0.00 0.23 0.23 87 1007.3
20260901213542 49 0 0.0 0.0 0.00 0.23 0.23 87 1007.2
20260901213105 49 0 0.0 0.0 0.00 0.23 0.23 87 1007.2
20260901212544 49 0 0.0 0.0 0.00 0.23 0.23 87 1007.2
20260901212042 49 0 0.0 0.0 0.00 0.23 0.23 87 1007.3
20260901211553 49 0 0.0 0.0 0.00 0.23 0.23 87 1007.3
20260901211042 49 0 0.0 0.0 0.00 0.23 0.23 87 1007.4
20260901210542 50 0 0.0 0.0 0.00 0.23 0.23 87 1007.4
20260901210052 50 0 0.0 0.0 0.00 0.23 0.23 88 1007.4
20260901205542 50 0 0.0 0.0 0.00 0.23 0.23 88 1007.5
20260901205043 50 0 0.0 0.0 0.00 0.23 0.23 88 1007.5
20260901204559 50 0 0.0 0.0 0.00 0.23 0.23 87 1007.4
20260901204043 50 0 0.0 0.0 0.00 0.23 0.23 87 1007.4
20260901203542 50 0 0.0 0.0 0.00 0.23 0.23 87 1007.5
20260901203118 50 0 0.0 0.0 0.00 0.23 0.23 87 1007.6
20260901202542 51 0 0.0 0.0 0.00 0.23 0.23 87 1007.6
20260901202042 51 0 0.0 0.0 0.00 0.23 0.23 87 1007.5
20260901201559 51 0 0.0 0.0 0.00 0.23 0.23 87 1007.5
20260901201042 51 0 0.0 0.0 0.00 0.23 0.23 87 1007.6
20260901200541 51 0 0.0 0.0 0.00 0.23 0.23 87 1007.6
20260901195542 51 0 0.0 0.0 0.00 0.23 0.23 88 1007.6
20260901195042 51 0 0.0 0.0 0.00 0.23 0.23 88 1007.5
20260901194601 51 0 0.0 0.0 0.00 0.23 0.23 88 1007.6
20260901194044 51 0 0.0 0.0 0.00 0.23 0.23 88 1007.7
20260901193542 51 0 0.0 0.0 0.00 0.23 0.23 88 1007.7
20260901193108 51 0 0.0 0.0 0.00 0.23 0.23 88 1007.6
20260901192542 51 0 0.0 0.0 0.00 0.23 0.23 88 1007.6
20260901192042 51 0 0.0 0.0 0.00 0.23 0.23 88 1007.6
20260901191553 51 0 0.0 0.0 0.00 0.23 0.23 88 1007.7
20260901191039 52 0 0.0 0.0 0.00 0.23 0.23 88 1007.6
20260901190541 52 0 0.0 0.0 0.00 0.23 0.23 88 1007.7
20260901190105 52 0 0.0 0.0 0.00 0.23 0.23 88 1007.7
20260901185541 52 0 0.0 0.0 0.00 0.23 0.23 88 1007.7
20260901185042 52 0 0.0 0.0 0.00 0.23 0.23 88 1007.8
20260901184607 52 0 0.0 0.0 0.00 0.23 0.23 87 1007.7
20260901184042 52 0 0.0 0.0 0.00 0.23 0.23 87 1007.7
20260901183546 52 0 0.0 0.0 0.00 0.23 0.23 87 1007.8
20260901183057 52 0 0.0 0.0 0.00 0.23 0.23 87 1007.8
20260901182549 52 0 0.0 0.0 0.00 0.23 0.23 87 1007.8
20260901182044 52 0 0.0 0.0 0.00 0.23 0.23 87 1007.8
20260901181607 52 0 0.0 0.0 0.00 0.23 0.23 87 1007.8
20260901181043 52 0 0.0 3.0 0.00 0.23 0.23 87 1007.8
20260901180547 52 0 0.0 3.0 0.00 0.23 0.23 87 1007.8
20260901180109 52 232 1.0 3.0 0.00 0.23 0.23 87 1007.9
20260901175544 52 231 0.0 3.0 0.00 0.23 0.23 87 1007.9
20260901175043 52 227 0.0 4.0 0.00 0.23 0.23 87 1007.8
20260901174559 52 192 0.0 4.0 0.00 0.23 0.23 87 1007.9
20260901174044 52 0 0.0 0.0 0.00 0.23 0.23 87 1007.9
20260901173544 52 0 0.0 2.0 0.00 0.23 0.23 87 1007.8
20260901173102 52 0 0.0 3.0 0.00 0.23 0.23 86 1007.8
20260901172543 52 252 0.0 4.0 0.00 0.23 0.23 86 1007.9
20260901172043 52 252 2.0 6.0 0.00 0.23 0.23 86 1007.9
20260901171604 52 194 2.0 6.0 0.00 0.23 0.23 86 1007.9
20260901171046 52 237 2.0 6.0 0.00 0.23 0.23 86 1007.9
20260901170545 52 196 2.0 5.0 0.00 0.23 0.23 86 1007.9
20260901170106 52 222 2.0 5.0 0.00 0.23 0.23 86 1007.9
20260901165543 52 227 2.0 4.0 0.00 0.23 0.23 86 1007.8
20260901165043 52 213 0.0 4.0 0.00 0.23 0.23 86 1007.8
20260901164606 52 0 1.0 4.0 0.00 0.23 0.23 86 1007.8
20260901164045 52 0 0.0 0.0 0.00 0.23 0.23 87 1007.8
20260901163544 52 0 0.0 0.0 0.00 0.23 0.23 87 1007.8
20260901163104 52 0 0.0 0.0 0.00 0.23 0.23 87 1007.7
20260901162544 52 0 0.0 0.0 0.00 0.23 0.23 87 1007.6
20260901162043 52 0 0.0 0.0 0.00 0.23 0.23 87 1007.6
20260901161606 52 0 0.0 0.0 0.00 0.23 0.23 87 1007.6
20260901161047 52 0 0.0 2.0 0.00 0.23 0.23 87 1007.6
20260901160548 52 0 0.0 3.0 0.00 0.23 0.23 87 1007.6
20260901160107 52 265 1.0 4.0 0.00 0.23 0.23 87 1007.6
20260901155543 52 0 1.0 5.0 0.00 0.23 0.23 87 1007.7
20260901155046 52 252 1.0 5.0 0.00 0.23 0.23 86 1007.7
20260901154604 52 212 1.0 4.0 0.00 0.23 0.23 87 1007.6
20260901154048 52 221 2.0 4.0 0.00 0.23 0.23 87 1007.6
20260901153544 52 0 1.0 4.0 0.00 0.23 0.23 87 1007.6
20260901153102 52 0 0.0 4.0 0.00 0.23 0.23 87 1007.7
20260901152543 52 244 1.0 4.0 0.00 0.23 0.23 87 1007.7
20260901152043 52 244 2.0 4.0 0.00 0.23 0.23 87 1007.6
20260901151558 52 241 0.0 4.0 0.00 0.23 0.23 87 1007.6
20260901151042 52 271 0.0 4.0 0.00 0.23 0.23 87 1007.6
20260901150543 52 0 1.0 4.0 0.00 0.23 0.23 87 1007.6
20260901150118 52 0 0.0 0.0 0.00 0.23 0.23 87 1007.7
20260901145545 52 0 0.0 0.0 0.00 0.23 0.23 88 1007.6
20260901145041 52 0 0.0 3.0 0.00 0.23 0.23 87 1007.6
20260901144603 52 0 0.0 3.0 0.00 0.23 0.23 87 1007.6
20260901144041 52 258 1.0 3.0 0.00 0.23 0.23 87 1007.6
20260901143541 52 262 0.0 5.0 0.00 0.23 0.23 87 1007.6
20260901143108 52 0 1.0 5.0 0.00 0.23 0.23 87 1007.6
20260901142541 52 304 2.0 5.0 0.00 0.23 0.23 87 1007.6
20260901142042 52 0 1.0 4.0 0.00 0.23 0.23 87 1007.6
20260901141605 52 243 1.0 3.0 0.00 0.23 0.23 88 1007.6
20260901141041 52 333 0.0 4.0 0.00 0.23 0.23 88 1007.6
20260901140541 52 0 0.0 5.0 0.00 0.23 0.23 88 1007.6
20260901135541 52 231 1.0 5.0 0.00 0.23 0.23 88 1007.6
20260901135045 52 234 2.0 5.0 0.00 0.23 0.23 88 1007.5
20260901134631 52 293 2.0 5.0 0.00 0.23 0.23 88 1007.5
20260901134040 52 0 2.0 7.0 0.00 0.23 0.23 88 1007.6
20260901133546 52 230 2.0 7.0 0.00 0.23 0.23 88 1007.5
20260901133105 52 236 2.0 8.0 0.00 0.23 0.23 88 1007.5
20260901132542 52 219 1.0 8.0 0.00 0.23 0.23 88 1007.5
20260901132042 52 241 5.0 9.0 0.00 0.23 0.23 88 1007.5
20260901131608 52 263 4.0 9.0 0.00 0.23 0.23 88 1007.4
20260901131041 52 252 2.0 9.0 0.00 0.23 0.23 88 1007.5
20260901130544 52 251 3.0 9.0 0.00 0.23 0.23 88 1007.4
20260901130113 52 285 4.0 9.0 0.00 0.23 0.23 88 1007.5
20260901125541 52 269 3.0 8.0 0.00 0.23 0.23 88 1007.4
20260901125041 52 246 3.0 8.0 0.00 0.23 0.23 88 1007.4
20260901124608 52 252 1.0 8.0 0.00 0.23 0.23 87 1007.4
20260901124041 52 240 3.0 8.0 0.00 0.23 0.23 87 1007.4
20260901123541 52 243 4.0 8.0 0.00 0.23 0.23 86 1007.4
20260901123104 52 242 2.0 6.0 0.00 0.23 0.23 87 1007.3
20260901122545 52 159 1.0 10.0 0.00 0.23 0.23 86 1007.3
20260901122044 52 250 1.0 10.0 0.00 0.23 0.23 87 1007.3
20260901121605 52 265 3.0 10.0 0.00 0.23 0.23 86 1007.4
20260901121042 52 240 3.0 8.0 0.00 0.23 0.23 86 1007.4
20260901120542 52 294 1.0 8.0 0.00 0.23 0.23 86 1007.3
20260901120105 52 214 4.0 10.0 0.00 0.23 0.23 86 1007.1
20260901115543 52 237 4.0 10.0 0.00 0.23 0.23 86 1007.2
20260901115043 52 244 2.0 7.0 0.00 0.23 0.23 87 1007.1
20260901114557 52 245 3.0 7.0 0.00 0.23 0.23 88 1007.1
20260901114043 52 328 1.0 5.0 0.00 0.23 0.23 89 1007.0
20260901113543 52 337 2.0 8.0 0.00 0.23 0.23 89 1007.0
20260901113117 52 243 3.0 8.0 0.00 0.23 0.23 89 1007.0
20260901112543 52 265 2.0 5.0 0.00 0.23 0.23 89 1007.0
20260901112043 52 269 2.0 8.0 0.00 0.23 0.23 89 1006.9
20260901111604 52 242 1.0 10.0 0.00 0.23 0.23 89 1006.9
20260901111047 51 242 4.0 10.0 0.00 0.23 0.23 89 1006.9
20260901110546 51 238 1.0 7.0 0.00 0.23 0.23 89 1007.0
20260901110108 51 237 3.0 7.0 0.00 0.23 0.23 89 1006.9
20260901105545 51 257 2.0 7.0 0.00 0.23 0.23 90 1006.9
20260901105046 51 217 2.0 5.0 0.00 0.23 0.23 90 1006.8
20260901104601 51 242 1.0 5.0 0.00 0.23 0.23 90 1006.7
20260901104043 51 240 1.0 7.0 0.00 0.23 0.23 90 1006.7
20260901103543 51 294 3.0 8.0 0.00 0.23 0.23 90 1006.7
20260901103106 51 257 3.0 8.0 0.00 0.23 0.23 89 1006.6
20260901102543 51 230 3.0 9.0 0.00 0.23 0.23 90 1006.5
20260901102044 51 331 4.0 9.0 0.01 0.23 0.23 90 1006.5
20260901101616 51 296 2.0 9.0 0.01 0.23 0.23 90 1006.4
20260901101043 51 209 3.0 9.0 0.01 0.23 0.23 90 1006.4
20260901100543 51 246 2.0 10.0 0.01 0.23 0.23 90 1006.4
20260901100120 51 250 4.0 10.0 0.02 0.23 0.23 89 1006.3
20260901095543 51 254 4.0 12.0 0.02 0.23 0.23 90 1006.3
20260901095044 51 233 4.0 12.0 0.02 0.22 0.22 90 1006.2
20260901094603 51 229 4.0 9.0 0.02 0.22 0.22 90 1006.2
20260901094043 51 249 4.0 8.0 0.02 0.22 0.22 90 1006.1
20260901093546 51 283 3.0 7.0 0.03 0.22 0.22 90 1006.1
20260901093100 51 240 2.0 7.0 0.03 0.22 0.22 90 1006.1
20260901092544 51 252 3.0 10.0 0.03 0.22 0.22 90 1006.0
20260901092046 51 250 1.0 10.0 0.03 0.22 0.22 90 1005.9
20260901091555 52 235 3.0 10.0 0.03 0.22 0.22 89 1005.9
20260901091043 52 325 0.0 6.0 0.03 0.22 0.22 90 1005.9
20260901090543 52 277 1.0 6.0 0.02 0.21 0.21 90 1005.8
20260901090100 52 336 0.0 7.0 0.03 0.21 0.21 90 1005.8
20260901085547 52 0 1.0 8.0 0.03 0.21 0.21 90 1005.8
20260901085043 52 227 2.0 8.0 0.02 0.20 0.20 90 1005.8
20260901084600 52 291 2.0 7.0 0.02 0.20 0.20 90 1005.7
20260901084043 52 312 2.0 8.0 0.01 0.19 0.19 90 1005.6
20260901083543 51 292 2.0 8.0 0.02 0.19 0.19 90 1005.6
20260901083100 51 298 1.0 9.0 0.02 0.19 0.19 90 1005.6
20260901082542 51 315 3.0 9.0 0.02 0.19 0.19 90 1005.7
20260901082044 51 0 1.0 9.0 0.01 0.18 0.18 90 1005.5
20260901081602 51 273 3.0 9.0 0.01 0.18 0.18 90 1005.5
20260901081042 51 290 2.0 6.0 0.01 0.18 0.18 90 1005.5
20260901080543 51 314 1.0 8.0 0.01 0.18 0.18 90 1005.6
20260901080100 51 245 2.0 8.0 0.00 0.18 0.18 90 1005.5
20260901075543 51 0 1.0 8.0 0.00 0.18 0.18 90 1005.4
20260901075045 51 259 3.0 8.0 0.00 0.18 0.18 90 1005.4
20260901074606 51 324 2.0 9.0 0.00 0.18 0.18 90 1005.3
20260901074044 51 242 4.0 9.0 0.00 0.18 0.18 89 1005.3
20260901073544 51 292 3.0 10.0 0.00 0.18 0.17 89 1005.3
20260901073103 51 217 3.0 11.0 0.00 0.18 0.17 89 1005.2
20260901072544 51 0 2.0 11.0 0.00 0.18 0.17 89 1005.1
20260901072048 51 261 3.0 12.0 0.00 0.18 0.17 89 1005.1
20260901071603 51 342 3.0 12.0 0.00 0.18 0.17 89 1005.0
20260901071043 51 321 3.0 11.0 0.00 0.18 0.17 89 1005.0
20260901070546 51 360 4.0 11.0 0.00 0.18 0.17 89 1004.9
20260901070103 51 224 3.0 10.0 0.01 0.18 0.17 89 1004.9